ZKPCA YHOT-YITT

Flight info

Callsign ZKPCA
Flight time 0h 36m
Altitude 2000
Route /
Aircraft 172/L-V/N

Departure

Time 2026-04-13 13:23
Airport Mount Hotham Airport (YHOT)

Arrival

Time 2026-04-13 14:00
Airport Mitta Mitta Airport (YITT)
Time Latitude Longitude Altitude Speed Heading
2026-04-13 13:17 -37.05157 147.33879 4256 ft 0 kts 213°
2026-04-13 13:18 -37.05158 147.33878 4256 ft 0 kts 211°
2026-04-13 13:19 -37.05156 147.33866 4256 ft 5 kts 356°
2026-04-13 13:19 -37.05139 147.33916 4257 ft 0 kts 66°
2026-04-13 13:21 -37.05138 147.33918 4257 ft 6 kts 66°
2026-04-13 13:21 -37.05126 147.33950 4258 ft 0 kts 53°
2026-04-13 13:21 -37.05086 147.33979 4259 ft 14 kts 10°
2026-04-13 13:22 -37.05010 147.33879 4263 ft 19 kts 303°
2026-04-13 13:22 -37.04880 147.33636 4271 ft 52 kts 305°
2026-04-13 13:22 -37.04627 147.33170 4325 ft 71 kts 305°
2026-04-13 13:22 -37.04329 147.32621 4348 ft 88 kts 303°
2026-04-13 13:23 -37.03973 147.31977 4505 ft 86 kts 302°
2026-04-13 13:23 -37.03621 147.31395 4752 ft 80 kts 333°
2026-04-13 13:23 -37.03086 147.31770 4794 ft 103 kts 52°
2026-04-13 13:23 -37.02724 147.32440 5074 ft 89 kts 48°
2026-04-13 13:24 -37.02334 147.33077 5255 ft 94 kts 53°
2026-04-13 13:24 -37.01967 147.33748 5467 ft 93 kts 54°
2026-04-13 13:24 -37.01597 147.34419 5646 ft 94 kts 55°
2026-04-13 13:24 -37.01498 147.35208 5750 ft 102 kts 120°
2026-04-13 13:25 -37.01722 147.36094 5802 ft 121 kts 98°
2026-04-13 13:25 -37.01633 147.37228 5747 ft 136 kts 88°
2026-04-13 13:25 -37.01233 147.39508 5524 ft 150 kts 60°
2026-04-13 13:26 -37.00863 147.40815 4982 ft 165 kts 69°
2026-04-13 13:26 -37.00498 147.42132 4663 ft 160 kts 70°
2026-04-13 13:26 -37.00072 147.43369 4483 ft 149 kts 63°
2026-04-13 13:26 -36.99721 147.44645 3971 ft 157 kts 78°
2026-04-13 13:27 -36.99412 147.45879 3756 ft 146 kts 73°
2026-04-13 13:27 -36.99184 147.47116 3537 ft 145 kts 90°
2026-04-13 13:27 -36.99340 147.48360 3439 ft 133 kts 88°
2026-04-13 13:27 -36.99191 147.49425 3060 ft 124 kts 80°
2026-04-13 13:28 -36.99105 147.50479 2639 ft 123 kts 77°
2026-04-13 13:28 -36.98979 147.51400 2548 ft 96 kts 76°
2026-04-13 13:28 -36.98941 147.52201 2445 ft 92 kts 102°
2026-04-13 13:28 -36.99104 147.52946 2580 ft 94 kts 112°
2026-04-13 13:29 -36.99447 147.53750 2526 ft 100 kts 97°
2026-04-13 13:29 -36.99087 147.54372 2660 ft 93 kts 55°
2026-04-13 13:29 -36.99001 147.55249 2608 ft 115 kts 68°
2026-04-13 13:29 -36.98779 147.56209 2745 ft 108 kts 56°
2026-04-13 13:30 -36.98386 147.56943 2934 ft 100 kts 56°
2026-04-13 13:30 -36.98041 147.57757 2997 ft 111 kts 51°
2026-04-13 13:30 -36.97451 147.58294 3195 ft 106 kts 37°
2026-04-13 13:30 -36.97464 147.59259 3036 ft 126 kts 68°
2026-04-13 13:31 -36.97070 147.60244 3005 ft 128 kts 59°
2026-04-13 13:31 -36.96586 147.61187 2837 ft 135 kts 51°
2026-04-13 13:31 -36.96439 147.62317 2758 ft 133 kts 89°
2026-04-13 13:31 -36.96505 147.63513 2518 ft 141 kts 95°
2026-04-13 13:32 -36.96683 147.64601 2863 ft 97 kts 112°
2026-04-13 13:32 -36.96610 147.65251 3095 ft 95 kts 21°
2026-04-13 13:32 -36.95961 147.65182 3318 ft 86 kts
2026-04-13 13:32 -36.95872 147.65830 3413 ft 100 kts 79°
2026-04-13 13:33 -36.95681 147.66641 3620 ft 98 kts 63°
2026-04-13 13:33 -36.95336 147.67448 3491 ft 121 kts 54°
2026-04-13 13:33 -36.94970 147.68398 3213 ft 111 kts 63°
2026-04-13 13:33 -36.95256 147.69268 2907 ft 122 kts 138°
2026-04-13 13:34 -36.95881 147.69898 2863 ft 115 kts 138°
2026-04-13 13:34 -36.96525 147.70513 2726 ft 112 kts 144°
2026-04-13 13:34 -36.97034 147.70955 2755 ft 69 kts 140°
2026-04-13 13:34 -36.97441 147.71198 2624 ft 60 kts 160°
2026-04-13 13:35 -36.96912 147.70005 2959 ft 124 kts 323°
2026-04-13 13:36 -36.96207 147.69441 3012 ft 112 kts 338°
2026-04-13 13:36 -36.95786 147.69992 3095 ft 108 kts 104°
2026-04-13 13:36 -36.96311 147.70758 3011 ft 119 kts 131°
2026-04-13 13:36 -36.96830 147.71070 3023 ft 98 kts 291°
2026-04-13 13:37 -36.96304 147.70618 3009 ft 100 kts 326°
2026-04-13 13:37 -36.95702 147.70072 3017 ft 113 kts 321°
2026-04-13 13:37 -36.95062 147.69448 3020 ft 120 kts 336°
2026-04-13 13:37 -36.94239 147.69488 3029 ft 122 kts 13°
2026-04-13 13:38 -36.93411 147.69723 3032 ft 122 kts 13°
2026-04-13 13:38 -36.92577 147.69966 3023 ft 123 kts 12°
2026-04-13 13:38 -36.91739 147.70207 3035 ft 124 kts 12°
2026-04-13 13:38 -36.90900 147.70447 3051 ft 124 kts 12°
2026-04-13 13:39 -36.90062 147.70679 3059 ft 123 kts 10°
2026-04-13 13:39 -36.89215 147.70860 3059 ft 123 kts
2026-04-13 13:39 -36.88380 147.71031 3055 ft 123 kts
2026-04-13 13:39 -36.87527 147.71122 3066 ft 123 kts
2026-04-13 13:40 -36.86672 147.71204 3071 ft 124 kts
2026-04-13 13:40 -36.85814 147.71285 3073 ft 123 kts
2026-04-13 13:40 -36.84961 147.71366 3070 ft 123 kts
2026-04-13 13:40 -36.84106 147.71448 3084 ft 123 kts
2026-04-13 13:41 -36.83250 147.71528 3089 ft 123 kts
2026-04-13 13:41 -36.82396 147.71582 3075 ft 122 kts 349°
2026-04-13 13:41 -36.81626 147.71122 2978 ft 129 kts 329°
2026-04-13 13:41 -36.80853 147.70639 3040 ft 119 kts 329°
2026-04-13 13:42 -36.80165 147.70107 3135 ft 115 kts 320°
2026-04-13 13:42 -36.79539 147.69466 3160 ft 118 kts 316°
2026-04-13 13:42 -36.78931 147.68808 3245 ft 117 kts 321°
2026-04-13 13:42 -36.78294 147.68131 3188 ft 126 kts 320°
2026-04-13 13:43 -36.77852 147.67175 3087 ft 132 kts 290°
2026-04-13 13:43 -36.77520 147.66113 3009 ft 130 kts 292°
2026-04-13 13:43 -36.77207 147.65079 3135 ft 118 kts 286°
2026-04-13 13:43 -36.76853 147.64151 3130 ft 126 kts 307°
2026-04-13 13:44 -36.76323 147.63273 3107 ft 125 kts 307°
2026-04-13 13:44 -36.75830 147.62447 3263 ft 113 kts 308°
2026-04-13 13:44 -36.75359 147.61689 3426 ft 109 kts 311°
2026-04-13 13:44 -36.74893 147.60979 3608 ft 104 kts 310°
2026-04-13 13:45 -36.74428 147.60285 3756 ft 105 kts 309°
2026-04-13 13:45 -36.73954 147.59595 3861 ft 105 kts 314°
2026-04-13 13:45 -36.73398 147.59004 3942 ft 105 kts 318°
2026-04-13 13:45 -36.72826 147.58410 4001 ft 111 kts 319°
2026-04-13 13:46 -36.72214 147.57781 4010 ft 116 kts 319°
2026-04-13 13:46 -36.71589 147.57136 4091 ft 113 kts 319°
2026-04-13 13:46 -36.71002 147.56536 4251 ft 109 kts 319°
2026-04-13 13:46 -36.70429 147.55962 4445 ft 100 kts 319°
2026-04-13 13:47 -36.69878 147.55419 4586 ft 102 kts 319°
2026-04-13 13:47 -36.69316 147.54877 4741 ft 102 kts 319°
2026-04-13 13:47 -36.68751 147.54333 4886 ft 103 kts 319°
2026-04-13 13:47 -36.68179 147.53796 5006 ft 103 kts 319°
2026-04-13 13:48 -36.67603 147.53259 5087 ft 104 kts 319°
2026-04-13 13:48 -36.67001 147.52701 5111 ft 112 kts 319°
2026-04-13 13:48 -36.66362 147.52104 5117 ft 117 kts 319°
2026-04-13 13:48 -36.65713 147.51479 5114 ft 118 kts 317°
2026-04-13 13:49 -36.65076 147.50842 5116 ft 118 kts 317°
2026-04-13 13:49 -36.64440 147.50198 5115 ft 117 kts 317°
2026-04-13 13:49 -36.63795 147.49556 5056 ft 122 kts 317°
2026-04-13 13:49 -36.63086 147.48836 4735 ft 138 kts 318°
2026-04-13 13:50 -36.62425 147.48044 4678 ft 130 kts 305°
2026-04-13 13:50 -36.61890 147.47081 4231 ft 146 kts 304°
2026-04-13 13:50 -36.61331 147.46033 4012 ft 138 kts 303°
2026-04-13 13:50 -36.60829 147.45064 4003 ft 129 kts 302°
2026-04-13 13:51 -36.60327 147.44157 3997 ft 126 kts 313°
2026-04-13 13:51 -36.59679 147.43437 4000 ft 124 kts 314°
2026-04-13 13:51 -36.59118 147.42632 3999 ft 123 kts 310°
2026-04-13 13:51 -36.58560 147.41807 3863 ft 131 kts 310°
2026-04-13 13:52 -36.57852 147.40999 3520 ft 140 kts 324°
2026-04-13 13:52 -36.57087 147.40294 3255 ft 142 kts 324°
2026-04-13 13:52 -36.56241 147.39558 2671 ft 152 kts 331°
2026-04-13 13:52 -36.55330 147.38902 2153 ft 152 kts 325°
2026-04-13 13:53 -36.54552 147.38187 1944 ft 122 kts 324°
2026-04-13 13:53 -36.53774 147.37710 1485 ft 122 kts 340°
2026-04-13 13:53 -36.53071 147.37360 1510 ft 108 kts 338°
2026-04-13 13:53 -36.52322 147.36983 1516 ft 122 kts 339°
2026-04-13 13:54 -36.51523 147.36584 1598 ft 120 kts 338°
2026-04-13 13:54 -36.50900 147.36013 1825 ft 112 kts 298°
2026-04-13 13:54 -36.50535 147.35125 1873 ft 119 kts 298°
2026-04-13 13:54 -36.50152 147.34201 1924 ft 121 kts 298°
2026-04-13 13:55 -36.49610 147.33412 1960 ft 122 kts 325°
2026-04-13 13:55 -36.48881 147.32875 2019 ft 122 kts 329°
2026-04-13 13:55 -36.48147 147.32341 2079 ft 122 kts 329°
2026-04-13 13:55 -36.47410 147.31810 2096 ft 124 kts 329°
2026-04-13 13:56 -36.46639 147.31261 1621 ft 136 kts 330°
2026-04-13 13:56 -36.45791 147.30675 1011 ft 132 kts 336°
2026-04-13 13:56 -36.45049 147.30770 991 ft 108 kts 45°
2026-04-13 13:56 -36.44910 147.31487 1356 ft 84 kts 110°
2026-04-13 13:57 -36.45204 147.32042 1564 ft 85 kts 114°
2026-04-13 13:57 -36.45431 147.32887 1441 ft 118 kts 112°
2026-04-13 13:57 -36.45843 147.33772 1394 ft 114 kts 129°
2026-04-13 13:57 -36.46522 147.34125 1400 ft 104 kts 166°
2026-04-13 13:58 -36.47203 147.34349 1411 ft 96 kts 163°
2026-04-13 13:58 -36.47793 147.34528 1453 ft 84 kts 163°
2026-04-13 13:58 -36.48373 147.34703 1408 ft 79 kts 157°
2026-04-13 13:58 -36.48895 147.34834 1348 ft 79 kts 165°
2026-04-13 13:59 -36.49410 147.34966 1292 ft 74 kts 161°
2026-04-13 13:59 -36.49935 147.35102 1173 ft 81 kts 167°
2026-04-13 13:59 -36.50470 147.35281 1034 ft 77 kts 164°
2026-04-13 13:59 -36.50913 147.35542 907 ft 68 kts 148°
2026-04-13 14:00 -36.51286 147.35834 856 ft 46 kts 144°
2026-04-13 14:00 -36.51507 147.35993 857 ft 24 kts 153°
2026-04-13 14:00 -36.51597 147.36057 855 ft 0 kts 127°
2026-04-13 14:04 -36.51620 147.36080 853 ft 8 kts 150°
2026-04-13 14:04 -36.51631 147.36088 853 ft 0 kts 149°
2026-04-13 14:04 -36.51634 147.36090 853 ft 0 kts 150°
2026-04-13 14:07 -36.51635 147.36090 853 ft 3 kts 149°
2026-04-13 14:07 -36.51828 147.36207 856 ft 55 kts 163°
2026-04-13 14:07 -36.52213 147.36489 923 ft 70 kts 144°
2026-04-13 14:08 -36.52550 147.36926 1104 ft 77 kts 130°
2026-04-13 14:08 -36.52944 147.37329 1380 ft 65 kts 181°
2026-04-13 14:08 -36.53063 147.36765 1318 ft 102 kts 326°
2026-04-13 14:08 -36.52307 147.36551 1032 ft 116 kts 328°
2026-04-13 14:09 -36.51648 147.36111 878 ft 91 kts 328°
2026-04-13 14:09 -36.51246 147.35802 854 ft 39 kts 328°
2026-04-13 14:09 -36.51124 147.35717 849 ft 26 kts 330°